User: anonymous   Login
Location: *
(33.3200°N, 8.3381°W)
Time: 11:32:59
(UTC+00:00)
Language:

SL-24 R/B - RUBIN 2 - Orbit

View from above orbital plane
View from above orbital plane
View from above satellite
View from above satellite

Ground track
Ground track

The orbit data is extracted from the following two-line orbital elements,

1 27610U 02058F   20184.86402905 -.00000087 +00000-0 +11460-4 0  9992
2 27610 064.5554 227.3309 0319165 277.7369 257.7197 14.28175888914137
Epoch (UTC): 02 July 2020 20:44:12
Eccentricity: 0.0319165
inclination: 64.5554°
perigee height: 569 km
apogee height: 1027 km
right ascension of ascending node: 227.3309°
argument of perigee: 277.7369°
revolutions per day: 14.28175888
mean anomaly at epoch: 257.7197°
orbit number at epoch: 91413

The dashed part of the orbit path shows where the satellite is in the earth's shadow,  

DLR